Time,TemperatureF,DewpointF,PressureIn,WindDirection,WindDirectionDegrees,WindSpeedMPH,WindSpeedGustMPH,Humidity,HourlyPrecipIn,Conditions,Clouds,dailyrainin,SolarRadiationWatts/m^2,SoftwareType,DateUTC
2013-11-21 00:11:00,32.0,31.0,-100.00,SSE,156,0.0,2.0,96,0.00,,,0.00,0.000000,,2013-11-21 07:11:00,
2013-11-21 00:22:00,32.0,31.0,-100.00,SSE,156,0.0,2.0,96,0.00,,,0.00,0.000000,,2013-11-21 07:22:00,
2013-11-21 00:33:00,32.0,31.0,-100.00,SSE,156,0.0,2.0,96,0.00,,,0.00,0.000000,,2013-11-21 07:33:00,
2013-11-21 01:12:00,31.0,30.0,-100.00,South,175,3.0,4.0,96,0.00,,,0.00,0.000000,,2013-11-21 08:12:00,
2013-11-21 01:22:00,31.0,30.0,-100.00,South,175,3.0,4.0,96,0.00,,,0.00,0.000000,,2013-11-21 08:22:00,
2013-11-21 01:32:00,31.0,30.0,-100.00,South,175,3.0,4.0,96,0.00,,,0.00,0.000000,,2013-11-21 08:32:00,
2013-11-21 02:11:00,31.0,30.0,-100.00,SSE,153,5.0,7.0,97,0.00,,,0.00,0.000000,,2013-11-21 09:11:00,
2013-11-21 02:22:00,31.0,30.0,-100.00,SSE,153,5.0,7.0,97,0.00,,,0.00,0.000000,,2013-11-21 09:22:00,
2013-11-21 02:33:00,31.0,30.0,-100.00,SSE,153,5.0,7.0,97,0.00,,,0.00,0.000000,,2013-11-21 09:33:00,
2013-11-21 03:13:00,32.0,31.0,-100.00,SE,138,8.0,11.0,97,0.00,,,0.00,0.000000,,2013-11-21 10:13:00,
2013-11-21 03:23:00,32.0,31.0,-100.00,SE,138,8.0,11.0,97,0.00,,,0.00,0.000000,,2013-11-21 10:23:00,
2013-11-21 03:33:00,32.0,31.0,-100.00,SE,138,8.0,11.0,97,0.00,,,0.00,0.000000,,2013-11-21 10:33:00,
2013-11-21 04:12:00,31.0,30.0,-100.00,SSE,151,7.0,13.0,97,0.00,,,0.00,0.000000,,2013-11-21 11:12:00,
2013-11-21 04:22:00,31.0,30.0,-100.00,SSE,151,7.0,13.0,97,0.00,,,0.00,0.000000,,2013-11-21 11:22:00,
2013-11-21 04:33:00,31.0,30.0,-100.00,SSE,151,7.0,13.0,97,0.00,,,0.00,0.000000,,2013-11-21 11:33:00,
2013-11-21 05:12:00,32.0,31.0,-100.00,SE,142,6.0,11.0,97,0.00,,,0.00,0.000000,,2013-11-21 12:12:00,
2013-11-21 05:22:00,32.0,31.0,-100.00,SE,142,6.0,11.0,97,0.00,,,0.00,0.000000,,2013-11-21 12:22:00,
2013-11-21 05:32:00,32.0,31.0,-100.00,SE,142,6.0,11.0,97,0.00,,,0.00,0.000000,,2013-11-21 12:32:00,
2013-11-21 06:11:00,31.0,30.0,-100.00,SE,141,8.0,13.0,97,0.00,,,0.00,0.000000,,2013-11-21 13:11:00,
2013-11-21 06:21:00,31.0,30.0,-100.00,SE,141,8.0,13.0,97,0.00,,,0.00,0.000000,,2013-11-21 13:21:00,
2013-11-21 06:32:00,31.0,30.0,-100.00,SE,141,8.0,13.0,97,0.00,,,0.00,0.000000,,2013-11-21 13:32:00,
2013-11-21 07:11:00,31.0,30.0,-100.00,SE,146,8.0,13.0,97,0.00,,,0.00,0.000000,,2013-11-21 14:11:00,
2013-11-21 07:22:00,31.0,30.0,-100.00,SE,146,8.0,13.0,97,0.00,,,0.00,0.000000,,2013-11-21 14:22:00,
2013-11-21 07:32:00,31.0,30.0,-100.00,SE,146,8.0,13.0,97,0.00,,,0.00,0.000000,,2013-11-21 14:32:00,
2013-11-21 08:12:00,31.0,30.0,-100.00,SSE,151,8.0,13.0,97,0.00,,,0.00,2.000000,,2013-11-21 15:12:00,
2013-11-21 08:22:00,31.0,30.0,-100.00,SSE,151,8.0,13.0,97,0.00,,,0.00,2.000000,,2013-11-21 15:22:00,
2013-11-21 08:33:00,31.0,30.0,-100.00,SSE,151,8.0,13.0,97,0.00,,,0.00,2.000000,,2013-11-21 15:33:00,
2013-11-21 09:13:00,31.0,30.0,-100.00,SSE,157,7.0,12.0,97,0.00,,,0.00,9.000000,,2013-11-21 16:13:00,
2013-11-21 09:24:00,31.0,30.0,-100.00,SSE,157,7.0,12.0,97,0.00,,,0.00,9.000000,,2013-11-21 16:24:00,
2013-11-21 09:33:00,31.0,30.0,-100.00,SSE,157,7.0,12.0,97,0.00,,,0.00,9.000000,,2013-11-21 16:33:00,
2013-11-21 10:12:00,32.0,31.0,-100.00,SSE,155,7.0,10.0,96,0.00,,,0.00,27.000000,,2013-11-21 17:12:00,
2013-11-21 10:22:00,32.0,31.0,-100.00,SSE,155,7.0,10.0,96,0.00,,,0.00,27.000000,,2013-11-21 17:22:00,
2013-11-21 10:33:00,32.0,31.0,-100.00,SSE,155,7.0,10.0,96,0.00,,,0.00,27.000000,,2013-11-21 17:33:00,
2013-11-21 11:12:00,33.0,31.0,-100.00,SSE,155,8.0,11.0,94,0.00,,,0.00,48.000000,,2013-11-21 18:12:00,
2013-11-21 11:22:00,33.0,31.0,-100.00,SSE,155,8.0,11.0,94,0.00,,,0.00,48.000000,,2013-11-21 18:22:00,
2013-11-21 11:32:00,33.0,31.0,-100.00,SSE,155,8.0,11.0,94,0.00,,,0.00,48.000000,,2013-11-21 18:32:00,
2013-11-21 12:12:00,34.0,32.0,-100.00,SSE,153,9.0,14.0,91,0.03,,,0.03,87.000000,,2013-11-21 19:12:00,
2013-11-21 12:22:00,34.0,32.0,-100.00,SSE,153,9.0,14.0,91,0.03,,,0.03,87.000000,,2013-11-21 19:22:00,
2013-11-21 12:32:00,34.0,32.0,-100.00,SSE,153,9.0,14.0,91,0.03,,,0.03,87.000000,,2013-11-21 19:32:00,
2013-11-21 13:12:00,36.0,33.0,-100.00,SE,128,9.0,13.0,88,0.14,,,0.17,245.000000,,2013-11-21 20:12:00,
2013-11-21 13:22:00,36.0,33.0,-100.00,SE,128,9.0,13.0,88,0.14,,,0.17,245.000000,,2013-11-21 20:22:00,
2013-11-21 13:32:00,36.0,33.0,-100.00,SE,128,9.0,13.0,88,0.14,,,0.17,245.000000,,2013-11-21 20:32:00,
2013-11-21 14:11:00,38.0,32.0,-100.00,South,169,8.0,11.0,78,0.04,,,0.21,487.000000,,2013-11-21 21:11:00,
2013-11-21 14:22:00,38.0,32.0,-100.00,South,169,8.0,11.0,78,0.04,,,0.21,487.000000,,2013-11-21 21:22:00,
2013-11-21 14:34:00,38.0,32.0,-100.00,South,169,8.0,11.0,78,0.04,,,0.21,487.000000,,2013-11-21 21:34:00,
2013-11-21 15:13:00,38.0,32.0,-100.00,SSE,153,9.0,16.0,79,-99.99,,,0.21,201.000000,,2013-11-21 22:13:00,
2013-11-21 15:23:00,38.0,32.0,-100.00,SSE,153,9.0,16.0,79,-99.99,,,0.21,201.000000,,2013-11-21 22:23:00,
2013-11-21 15:33:00,38.0,32.0,-100.00,SSE,153,9.0,16.0,79,-99.99,,,0.21,201.000000,,2013-11-21 22:33:00,
2013-11-21 17:11:00,34.0,31.0,-100.00,North,351,5.0,7.0,87,-99.99,,,0.21,32.000000,,2013-11-22 00:11:00,
2013-11-21 17:22:00,34.0,31.0,-100.00,North,351,5.0,7.0,87,-99.99,,,0.21,32.000000,,2013-11-22 00:22:00,
2013-11-21 17:32:00,34.0,31.0,-100.00,North,351,5.0,7.0,87,-99.99,,,0.21,32.000000,,2013-11-22 00:32:00,
2013-11-21 18:12:00,28.0,25.0,-100.00,NNW,343,11.0,16.0,90,-99.99,,,0.21,1.000000,,2013-11-22 01:12:00,
2013-11-21 18:22:00,28.0,25.0,-100.00,NNW,343,11.0,16.0,90,-99.99,,,0.21,1.000000,,2013-11-22 01:22:00,
2013-11-21 18:32:00,28.0,25.0,-100.00,NNW,343,11.0,16.0,90,-99.99,,,0.21,1.000000,,2013-11-22 01:32:00,
2013-11-21 19:11:00,26.0,23.0,-100.00,North,350,13.0,18.0,90,0.00,,,0.21,0.000000,,2013-11-22 02:11:00,
2013-11-21 19:21:00,26.0,23.0,-100.00,North,350,13.0,18.0,90,0.00,,,0.21,0.000000,,2013-11-22 02:21:00,
2013-11-21 19:32:00,26.0,23.0,-100.00,North,350,13.0,18.0,90,0.00,,,0.21,0.000000,,2013-11-22 02:32:00,
2013-11-21 20:11:00,24.0,21.0,-100.00,North,351,14.0,22.0,88,0.00,,,0.21,0.000000,,2013-11-22 03:11:00,
2013-11-21 20:22:00,24.0,21.0,-100.00,North,351,14.0,22.0,88,0.00,,,0.21,0.000000,,2013-11-22 03:22:00,
2013-11-21 20:33:00,24.0,21.0,-100.00,North,351,14.0,22.0,88,0.00,,,0.21,0.000000,,2013-11-22 03:33:00,
2013-11-21 21:13:00,23.0,20.0,-100.00,North,357,12.0,24.0,88,0.00,,,0.21,0.000000,,2013-11-22 04:13:00,
2013-11-21 21:23:00,23.0,20.0,-100.00,North,357,12.0,24.0,88,0.00,,,0.21,0.000000,,2013-11-22 04:23:00,
2013-11-21 21:33:00,23.0,20.0,-100.00,North,357,12.0,24.0,88,0.00,,,0.21,0.000000,,2013-11-22 04:33:00,
2013-11-21 22:12:00,22.0,17.0,-100.00,North,354,16.0,23.0,82,0.00,,,0.21,0.000000,,2013-11-22 05:12:00,
2013-11-21 22:22:00,22.0,17.0,-100.00,North,354,16.0,23.0,82,0.00,,,0.21,0.000000,,2013-11-22 05:22:00,
2013-11-21 22:32:00,22.0,17.0,-100.00,North,354,16.0,23.0,82,0.00,,,0.21,0.000000,,2013-11-22 05:32:00,
2013-11-21 23:12:00,20.0,15.0,-100.00,North,349,18.0,28.0,81,0.00,,,0.21,0.000000,,2013-11-22 06:12:00,
2013-11-21 23:21:00,20.0,15.0,-100.00,North,349,18.0,28.0,81,0.00,,,0.21,0.000000,,2013-11-22 06:21:00,
2013-11-21 23:32:00,20.0,15.0,-100.00,North,349,18.0,28.0,81,0.00,,,0.21,0.000000,,2013-11-22 06:32:00,